Weather Roundup
Issued by NWS Springfield, MO

Home | Current Version | Previous Version | Text Only | Print | Product List | Glossary On
Versions: 1 2 3 4 5 6 7 8 9 10 11 12 13 14 15 16 17 18 19 20 21 22 23 24 25 26 27 28 29 30 31 32 33 34 35 36 37 38 39 40 41 42 43 44 45 46 47 48 49 50
000
NZUS99 KSGF 222207
HRRSGF

HOURLY WEATHER
NATIONAL WEATHER SERVICE SPRINGFIELD MO
500 PM CDT WED OCT 22 2014

......SGF CWA......

CITY           SKY/WX    TMP DP  RH WIND       PRES   REMARKS
SPRINGFIELD    SUNNY     69  47  45 S8        30.14F
JOPLIN         SUNNY     71  57  61 SE5       30.12S
WEST PLAINS    SUNNY     65  44  46 E8        30.19F
ROLLA          SUNNY     64  40  41 E8        30.17F
OSAGE BEACH    SUNNY     70  45  40 SE6       30.15F
BRANSON        SUNNY     70  48  46 SE8       30.17F

......SURROUNDING SGF CWA......

CITY           SKY/WX    TMP DP  RH WIND       PRES   REMARKS
CHANUTE        SUNNY     76  57  51 S12       30.09F
PARSONS        SUNNY     77  58  51 S8        30.10F
COFFEYVILLE    SUNNY     76  57  51 S12       30.08F
EMPORIA        LGT RAIN  75  55  49 S16G25    30.06S
GROVE OK       PTSUNNY   75  59  57 CALM      30.12S
ROGERS AR      SUNNY     71  53  52 E7        30.14F
SILOAM SPRINGS PTSUNNY   73  54  49 SW6       30.14S
HARRISON AR    SUNNY     68  49  50 SE9       30.16F
NEAR YELLVILLE SUNNY     68  46  45 SE7       30.17F

......KANSAS AND MISSOURI......

CITY           SKY/WX    TMP DP  RH WIND       PRES   REMARKS
KANSAS CTY INT MOSUNNY   71  57  61 SE14      30.09S
DOWNTOWN KC    SUNNY     73  56  54 SE13      30.09S
COLUMBIA       SUNNY     65  43  44 SE12      30.16F
SEDALIA        SUNNY     69  48  47 SE9       30.15F
ST JOSEPH      SUNNY     73  55  53 SE13      30.08S
ST LOUIS       SUNNY     63  41  44 E6        30.23F
SPIRIT OF STL  SUNNY     62  42  47 E8        30.21F
KIRKSVILLE     SUNNY     63  45  51 SE10      30.17F
WICHITA        PTSUNNY   76  52  43 S22       30.04S
TOPEKA         SUNNY     77  59  53 SE13      30.05F
OLATHE         SUNNY     71  57  61 S12       30.09F

......TENNESSEE......

CITY           SKY/WX    TMP DP  RH WIND       PRES   REMARKS
MEMPHIS        SUNNY     67  40  37 E8        30.16F
NASHVILLE      SUNNY     62  40  44 NE10      30.20S

......ARKANSAS.......

CITY           SKY/WX    TMP DP  RH WIND       PRES   REMARKS
FAYETTEVILLE   PTSUNNY   73  53  49 CALM      30.13S
FT SMITH       SUNNY     74  52  46 E13       30.12S
LITTLE ROCK    SUNNY     71  47  42 NE7       30.16F

......OKLAHOMA.......

CITY           SKY/WX    TMP DP  RH WIND       PRES   REMARKS
TULSA          MOSUNNY   76  57  51 SE9       30.07F
PONCA CITY     SUNNY     77  56  48 S7        30.05F
MCALESTER      SUNNY     77  55  46 E5        30.10F
OKLAHOMA CITY  PTSUNNY   76  57  51 S12       30.08S

......IOWA............

CITY           SKY/WX    TMP DP  RH WIND       PRES   REMARKS
DES MOINES     PTSUNNY   65  46  50 S18       30.10F
QUAD CITIES    SUNNY     60  38  43 SE10      30.21F

......ILLINOIS........

CITY           SKY/WX    TMP DP  RH WIND       PRES   REMARKS
QUINCY         SUNNY     61  39  44 SE12      30.20F
CHICAGO        CLEAR     51  37  58 E10       30.28F




USA.gov is the U.S. government's official web portal to all federal, state and local government web resources and services.